This is the latest recevied weather packets stored in our database for station/object K2ATL. If no packets are shown the sender has not sent any weather packets the latest 10 day(s).
| Time | Temp. | Humidity | Pressure | Rain* | Wind** | Luminosity | Snow |
|---|---|---|---|---|---|---|---|
| 1777936684 | 21.11° C | 49% | 1099.6 hPa | 0 mm | - | 68 W/m² | - |
| 1777936380 | 21.11° C | 48% | 1099.6 hPa | 0 mm | - | 85 W/m² | - |
| 1777936076 | 20.56° C | 49% | 1099.5 hPa | 0 mm | - | 74 W/m² | - |
| 1777935774 | 20.56° C | 49% | 1099.3 hPa | 0 mm | - | 80 W/m² | - |
| 1777935473 | 20.56° C | 49% | 1099.5 hPa | 0 mm | - | 81 W/m² | - |
| 1777935169 | 20.56° C | 49% | 1099.4 hPa | 0 mm | - | 85 W/m² | - |
| 1777934866 | 20.56° C | 49% | 1099.5 hPa | 0 mm | - | 91 W/m² | - |
| 1777934563 | 20.56° C | 48% | 1099.6 hPa | 0 mm | - | 102 W/m² | - |
| 1777934259 | 20.56° C | 49% | 1099.4 hPa | 0 mm | - | 105 W/m² | - |
| 1777933955 | 21.11° C | 49% | 1099.5 hPa | 0 mm | - | 99 W/m² | - |
| 1777933652 | 21.11° C | 47% | 1099.6 hPa | 0 mm | - | 101 W/m² | - |
| 1777933349 | 21.11° C | 47% | 1099.5 hPa | 0 mm | - | 122 W/m² | - |
| 1777933046 | 21.67° C | 46% | 1099.7 hPa | 0 mm | - | 126 W/m² | - |
| 1777932743 | 21.67° C | 45% | 1099.6 hPa | 0 mm | - | 125 W/m² | - |
| 1777932440 | 21.67° C | 45% | 1099.6 hPa | 0 mm | - | 142 W/m² | - |
| 1777932137 | 21.67° C | 44% | 1099.6 hPa | 0 mm | - | 132 W/m² | - |
| 1777931834 | 21.67° C | 43% | 1099.6 hPa | 0 mm | - | 157 W/m² | - |
| 1777931531 | 21.67° C | 44% | 1099.7 hPa | 0 mm | - | 180 W/m² | - |
| 1777931227 | 21.67° C | 42% | 1099.6 hPa | 0 mm | - | 174 W/m² | - |
| 1777930924 | 21.67° C | 43% | 1099.6 hPa | 0 mm | - | 194 W/m² | - |
| 1777930620 | 21.67° C | 43% | 1099.4 hPa | 0 mm | - | 214 W/m² | - |
| 1777930317 | 22.22° C | 40% | 1099.5 hPa | 0 mm | - | 268 W/m² | - |
| 1777930014 | 22.22° C | 42% | 1099.5 hPa | 0 mm | - | 251 W/m² | - |
| 1777929710 | 22.22° C | 39% | 1099.5 hPa | 0 mm | - | 301 W/m² | - |
| 1777929408 | 22.22° C | 39% | 1099.4 hPa | 0 mm | - | 376 W/m² | - |
* Rain latest hour (hover to see other rain measurements)
** Current wind speed in m/s (hover to see current wind gust speed)